#timestamp,LO_Frequency,Hit,StdDev 
1658271615.4,286046991.8,Y
1658271635.3,286046996.0,P
1658271655.1,286046999.1,N
1658271675.8,286047000.5,N
1658271695.7,286047002.0,N
1658271715.5,286047004.4,N
1658271735.4,286047001.6,N
1658271755.2,286047002.8,N
1658271775.0,286047002.3,N
1658271775.9,286047002.3,N
1658271795.8,286047000.3,N
1658271815.6,286046997.2,N
1658271835.5,286046996.9,N
1658271855.3,286047000.7,N
1658271875.1,286047000.9,N
1658271895.9,286047002.2,N
1658271915.7,286047005.9,N
1658271935.5,286047002.2,N
1658271955.4,286047011.9,Y
1658271975.2,286047002.6,P
1658271995.1,286047002.7,P
1658271996.0,286047002.7,P
1658272015.8,286047000.2,N
1658272035.6,286047000.3,N
1658272055.5,286046999.9,N
1658272075.3,286047001.9,N
1658272095.1,286047002.8,N
1658272115.9,286047002.3,N
1658272135.7,286047002.3,N
1658272155.6,286047000.9,N
1658272175.4,286047002.5,N
1658272195.2,286047002.7,N
1658272215.1,286047000.3,N
1658272216.0,286047000.3,N
1658272235.8,286047000.6,N
1658272255.7,286047000.8,N
1658272275.5,286047000.9,N
1658272295.3,286047004.1,Y
1658272315.2,286047002.8,P
1658272335.0,286047000.2,N
1658272335.9,286047000.2,N
1658272355.8,286046999.0,N
1658272375.6,286046998.9,N
1658272395.4,286047000.6,N
1658272415.3,286047001.0,N
1658272435.1,286047001.2,N
1658272455.8,286047004.4,Y
1658272475.7,286047004.3,P
1658272495.5,286047001.1,N
1658272515.4,286046998.5,N
1658272535.2,286046999.4,N
1658272555.0,286046999.4,N
1658272555.9,286046999.4,N
1658272575.8,286046999.4,N
1658272595.6,286046999.0,N
1658272615.4,286046998.1,N
1658272635.3,286046997.1,N
1658272655.1,286046996.3,N
1658272675.9,286046993.3,Y
1658272695.7,286046995.9,P
1658272715.5,286046993.5,P
1658272735.4,286046993.6,N
1658272755.2,286046996.2,N
1658272775.0,286046997.6,N
1658272776.0,286046997.6,N
1658272795.8,286046997.3,N
1658272815.6,286046993.8,Y
1658272835.5,286047000.8,P
1658272855.3,286047001.9,N
1658272875.1,286046999.7,N
1658272895.9,286046998.5,N
1658272915.7,286047001.0,N
1658272935.6,286047000.8,N
1658272955.4,286047002.8,N
1658272975.2,286047001.9,N
1658272995.1,286047000.5,N
1658272996.0,286047000.5,N
1658273015.8,286046999.4,N
1658273035.6,286047004.3,N
1658273055.5,286047000.0,N
1658273075.3,286046999.9,N
1658273095.2,286047001.1,N
1658273115.9,286047000.1,N
1658273135.7,286046998.3,N
1658273155.6,286047000.3,N
1658273175.4,286046998.2,N
1658273195.2,286046999.0,N
1658273215.1,286047001.2,N
1658273216.0,286047001.2,N
1658273235.8,286047001.2,N
1658273255.7,286047002.7,N
1658273275.5,286047004.3,N
1658273295.3,286047002.0,N
1658273315.2,286047002.4,N
1658273335.0,286047001.1,N
1658273335.9,286047001.1,N
1658273355.7,286046998.7,N
1658273375.6,286046998.9,N
1658273395.4,286046996.6,N
1658273415.3,286047000.9,N
1658273435.1,286047002.8,N
1658273436.0,286047002.8,N
1658273455.8,286047000.4,N
1658273475.7,286046998.4,N
1658273495.5,286046998.4,N
1658273515.3,286046999.9,N
1658273535.2,286047000.9,N
1658273555.0,286046999.8,N
1658273555.9,286046999.8,N
1658273575.8,286047000.6,N
1658273595.6,286046996.9,N
1658273615.4,286046998.1,N
1658273635.3,286046996.5,N
1658273655.1,286046996.7,N
1658273675.8,286046997.5,N
1658273695.7,286046996.9,N
1658273715.5,286046996.5,N
1658273735.4,286046997.3,N
1658273755.2,286046999.3,N
1658273775.0,286047000.2,N
1658273775.9,286047000.2,N
1658273795.8,286047002.8,N
1658273815.6,286047000.1,N
1658273835.5,286047001.3,N
1658273855.3,286047002.5,N
1658273875.1,286047000.1,N
1658273895.9,286047000.4,N
1658273915.7,286047001.4,N
1658273935.6,286047003.9,N
1658273955.4,286047001.6,N
1658273975.2,286046998.3,N
1658273995.1,286047000.7,N
1658273996.0,286047000.7,N
1658274015.8,286046999.7,N
1658274035.6,286047001.9,N
1658274055.5,286047002.2,N
1658274075.3,286047004.1,N
1658274095.2,286047002.2,N
1658274115.9,286047000.7,N
1658274135.7,286046999.0,N
1658274155.6,286046999.4,N
1658274175.4,286047002.4,N
1658274195.2,286047001.9,N
1658274215.1,286047002.6,N
1658274216.0,286047002.6,N
1658274235.8,286047001.2,N
1658274255.7,286046996.5,N
1658274275.5,286046996.9,N
1658274295.3,286046996.8,N
1658274315.2,286046997.4,N
1658274335.0,286046997.1,N
1658274335.9,286046997.1,N
1658274355.8,286046996.7,N
1658274375.6,286046997.3,N
1658274395.4,286046998.9,N
1658274415.3,286046998.7,N
1658274435.1,286046996.9,N
1658274455.8,286046998.5,N
1658274475.7,286046999.1,N
1658274495.5,286046996.5,N
1658274515.4,286046997.0,N
1658274535.2,286046999.7,N
1658274555.0,286046998.1,N
1658274555.9,286046998.1,N
1658274575.8,286047000.3,N
1658274595.6,286047000.6,N
1658274615.5,286047002.6,N
1658274635.3,286047006.6,Y
1658274655.1,286047007.4,P
1658274675.9,286047005.6,N
1658274695.7,286047005.9,N
1658274715.5,286047003.3,N
1658274735.4,286047001.3,N
1658274755.2,286047001.7,N
1658274775.1,286047001.9,N
1658274776.0,286047001.9,N
1658274795.8,286047005.6,N
1658274815.6,286047003.1,N
1658274835.5,286047003.0,N
1658274855.3,286047005.0,N
1658274875.1,286047005.2,N
1658274895.9,286047005.9,N
1658274915.7,286047007.6,Y
1658274935.6,286047002.1,P
1658274955.4,286047000.0,N
1658274975.2,286047004.0,N
1658274995.1,286047002.5,N
1658274996.0,286047002.5,N
1658275015.8,286046999.2,N
1658275035.7,286046998.7,N
1658275055.5,286046998.8,N
1658275075.3,286046998.3,N
1658275095.2,286047000.7,N
1658275115.0,286047000.1,N
1658275115.9,286047000.1,N
1658275135.7,286047000.8,N
1658275155.6,286047001.2,N
1658275175.4,286046997.2,N
1658275195.3,286046997.2,N
